Flag for Germany Weather past 2 weeks in Rheine, North Rhine-Westphalia, Germany

Now
66 °F

Mild.


Feels Like: 66 °F
Forecast: 62 / 78 °F
Wind: 2 mph from Northeast

Location: Rheine-Bentlage

Current Time: Jul 25, 2014 at 7:09:21 PM

Latest Report: Jul 25, 2014 at 6:20 PM


Visibility: N/A

Pressure: 29.95 "Hg

Humidity: 88%

Dew point: 63 °F

Location of RheineLocation

Historic Weather in Rheine — Graph

°F

Rheine temperature yesterday

Maximum temperature yesterday: 77 °F (at 4:20 PM)
Minimum temperature yesterday: 66 °F (at 11:20 PM)
Average temperature yesterday: 72 °F

Past Weeks' High & Low Weather Summary

 TemperatureHumidityPressure
High91 °F (Jul 19, 2:20 PM)100% (Jul 10, 9:20 PM)30.18 "Hg (Jul 10, 9:20 PM)
Low55 °F (Jul 15, 1:20 AM)28% (Jul 19, 4:20 PM)29.68 "Hg (Jul 13, 5:20 PM)
Average70 °F78%29.96 "Hg
* Reported Jul 10 5:20 PM — Jul 25 5:20 PM, Rheine, Weather by CustomWeather, © 2014

Note: Actual official high and low records may vary slightly from our data, if they occured in-between our weather recording intervals... More about our weather records

Advertising

Rheine weather history for previous 24 hours

 ConditionsComfort  
Time TempWeatherWind HumidityBarometerVisibility
5:20 PM
Jul 25
66 °FMild.2 mph88%29.95 "HgN/A
4:20 PM64 °FMild.3 mph94%29.98 "HgN/A
3:20 PM64 °FMild.5 mph94%29.98 "HgN/A
2:20 PM64 °FMild.6 mph88%29.98 "Hg5 mi
1:20 PM63 °FMild.6 mph94%29.98 "Hg5 mi
12:20 PM63 °FBroken clouds.5 mph94%30.01 "HgN/A
11:20 AM63 °FLight rain. Fog.5 mph94%30.01 "Hg3 mi
10:20 AM61 °FRain. Fog.5 mph100%30.01 "Hg2 mi
9:51 AM61 °FLight rain. Fog.3 mph100%30.01 "Hg3 mi
9:20 AM61 °FDrizzle. Fog.3 mph94%30.01 "Hg3 mi
8:20 AM61 °FDrizzle. Fog.8 mph94%30.01 "Hg2 mi
8:02 AM63 °FDrizzle. Fog.9 mph88%30.01 "Hg3 mi
7:20 AM63 °FBroken clouds.3 mph83%30.01 "HgN/A
6:20 AM61 °FPassing clouds.2 mph88%30.01 "HgN/A
5:20 AM63 °FPassing clouds.3 mph83%30.01 "HgN/A
4:20 AM61 °FCool.3 mph88%30.01 "HgN/A
3:20 AM63 °FMild.6 mph83%30.04 "HgN/A
2:20 AM63 °FMild.5 mph77%30.04 "HgN/A
1:20 AM63 °FMild.2 mph77%30.04 "HgN/A
12:20 AM66 °FMild.5 mph64%30.04 "HgN/A
11:20 PM
Jul 24
66 °FLight rain. Passing clouds.8 mph64%30.04 "HgN/A
10:20 PM68 °FPartly sunny.12 mph56%30.04 "HgN/A
9:20 PM70 °FPartly sunny.5 mph64%30.01 "HgN/A
8:20 PM70 °FPartly sunny.3 mph64%30.01 "HgN/A
7:20 PM72 °FSprinkles. Scattered clouds.8 mph57%30.01 "HgN/A
Weather by CustomWeather, © 2014

See weather overviewHow to use our weather pages